Regional Weather Roundup
Issued by NWS Cleveland, OH

Home | Current Version | Previous Version | Text Only | Print | Product List | Glossary Off
Versions: 1 2 3 4 5 6 7 8 9 10 11 12 13 14 15 16 17 18 19 20 21 22 23 24 25 26 27 28 29 30 31 32 33 34 35 36 37 38 39 40 41 42 43 44 45 46 47 48 49 50

000
ASUS41 KCLE 222202
RWRCLE
OHIO REGIONAL WEATHER ROUNDUP
NATIONAL WEATHER SERVICE CLEVELAND, OH
600 PM EDT WED MAR 22 2017

NOTE: "FAIR" INDICATES FEW OR NO CLOUDS BELOW 12,000 FEET WITH NO
SIGNIFICANT WEATHER AND/OR OBSTRUCTIONS TO VISIBILITY.

OHZ001>008-015>018-024>027-034-035-043-044-222300-
   NORTHWEST OHIO

CITY           SKY/WX    TMP DP  RH WIND       PRES   REMARKS
DEFIANCE       SUNNY     36  14  40 NE10      30.53F
FINDLAY        SUNNY     35  13  40 NE6       30.52S
TOLEDO EXPRESS SUNNY     36  12  37 NW7       30.53S
TOLEDO EXEC    SUNNY     33  16  49 E6        30.56S WCI  28
LIMA           SUNNY     35  18  49 E9        30.50S WCI  28
$$

OHZ009>014-019>023-028>033-038-089-222300-
   NORTHEAST OHIO

CITY           SKY/WX    TMP DP  RH WIND       PRES   REMARKS
CLE-HOPKINS    MOSUNNY   30  12  47 N12       30.57R WCI  20
CLE-LAKEFRONT  SUNNY     29  14  53 NW8       30.55S WCI  21
CUY CO. ARPT   MOSUNNY   30  14  51 NE9       30.55R WCI  22
LORAIN-ELYRIA  SUNNY     29  12  49 NE10      30.55R WCI  20
ASHTABULA      SUNNY     27   8  44 N10G16    30.53R WCI  17
AKRON-CANTON   SUNNY     33  10  38 NW13      30.47R WCI  24
WOOSTER        SUNNY     32  14  47 N9        30.49R WCI  24
MANSFIELD      SUNNY     32  17  54 N13       30.48S WCI  22
YOUNGSTOWN     MOSUNNY   30   8  39 N16       30.47S WCI  19
$$

OHZ042-051>053-060>062-070>072-077>081-222300-
  SOUTHWEST OHIO

CITY           SKY/WX    TMP DP  RH WIND       PRES   REMARKS
CINC-COVINGTON SUNNY     42  16  34 NE14      30.43S
CINC-LUNKEN    SUNNY     43  21  41 NE7       30.47S
HAMILTON       SUNNY     42  20  41 E10       30.47S
DAYTON         SUNNY     38  19  46 NE10      30.47S
WRIGHT-PAT AFB NOT AVBL
DAYTON GENERAL SUNNY     39  18  42 NE12      30.44F
WILMINGTON     SUNNY     37  22  54 NE13      30.45S
$$

OHZ036-037-039>041-045>050-054>059-063>069-073>076-082>088-222300-
  CENTRAL AND SOUTHEAST OHIO

CITY           SKY/WX    TMP DP  RH WIND       PRES   REMARKS
COLUMBUS       SUNNY     41  14  33 NE14G20   30.47S
OSU AIRPORT    SUNNY     38  17  42 N14       30.47S
BOLTON FIELD   SUNNY     37  18  44 N12       30.47S
RICKENBACK AFB SUNNY     39  15  37 N9G17     30.46S
NEWARK         SUNNY     39  13  34 NE8       30.46S
MARION         SUNNY     34  16  47 N13       30.51R WCI  25
LANCASTER      SUNNY     42  17  36 NE9       30.46S
ZANESVILLE     SUNNY     39  13  34 N9        30.46R
NEW PHILLY     NOT AVBL
$$



USA.gov is the U.S. government's official web portal to all federal, state and local government web resources and services.